Waarnemingen

Advertentie
Mijn weer
Guadalajara, Spanje (8226): temperatuur & dauwpunt: 12.07.2019 20:00:00 - 18.07.2019 20:00:00 (CEST)Guadalajara, Spanje (8226): windsnelheid: 12.07.2019 20:00:00 - 18.07.2019 20:00:00 (CEST)Guadalajara, Spanje (8226): windrichting: 12.07.2019 20:00:00 - 18.07.2019 20:00:00 (CEST)Guadalajara, Spanje (8226): luchtdruk: 12.07.2019 20:00:00 - 18.07.2019 20:00:00 (CEST)Guadalajara, Spanje (8226): zicht: 12.07.2019 20:00:00 - 18.07.2019 20:00:00 (CEST)Guadalajara, Spanje (8226): neerslag: 12.07.2019 20:00:00 - 18.07.2019 20:00:00 (CEST)
Datum & Tijd tt [°C] td [°C] ff [km/u] ff [kn] dd ppp [hPa] vv [km] rr [mm]
18.07.2019 20:00:00 - - - - - - - -
18.07.2019 19:00:00 33,6 8,3 8 4 NNW 1007,2 20 0,0
18.07.2019 18:00:00 34,4 8,2 5 3 W 1007,2 20 0,0
18.07.2019 17:00:00 34,4 8,2 8 4 W 1007,6 20 -
18.07.2019 16:00:00 34,1 8,7 11 6 WNW 1008,2 20 0,0
18.07.2019 15:00:00 33,9 9,9 8 4 W 1008,5 20 0,0
18.07.2019 14:00:00 33,0 9,7 5 3 WNW 1009,4 20 -
18.07.2019 13:00:00 31,2 12,1 5 3 NNW 1010,3 20 0,0
18.07.2019 12:00:00 29,9 11,9 5 3 N 1010,9 20 0,0
18.07.2019 11:00:00 28,2 11,7 4 2 NNO 1011,6 19 -
18.07.2019 10:00:00 25,5 12,3 4 2 ZO 1012,3 20 0,0
18.07.2019 09:00:00 22,5 13,3 5 3 N 1013,0 20 0,0
18.07.2019 08:00:00 20,5 12,5 5 3 NNO 1013,2 20 -
18.07.2019 07:00:00 19,4 11,9 8 4 NO 1012,9 19 0,0
18.07.2019 06:00:00 18,9 12,6 8 4 ONO 1012,6 20 0,0
18.07.2019 05:00:00 19,5 13,4 5 3 ONO 1012,4 20 -
18.07.2019 04:00:00 21,0 13,4 4 2 ONO 1012,0 20 0,0
18.07.2019 03:00:00 21,4 13,1 8 4 ONO 1012,2 20 0,0
18.07.2019 02:00:00 22,7 12,9 4 2 NO 1011,9 20 -
18.07.2019 01:00:00 24,4 12,0 4 2 NNO 1011,1 20 0,0
18.07.2019 00:00:00 25,3 11,1 8 4 NNO 1010,6 20 0,0
17.07.2019 23:00:00 26,3 5,8 4 2 ONO 1010,1 20 -
17.07.2019 22:00:00 28,4 5,9 4 2 O 1008,6 20 0,0
17.07.2019 21:00:00 30,9 3,8 5 3 NNW 1007,6 20 0,0
17.07.2019 20:00:00 31,1 4,0 4 2 N 1007,4 20 -
17.07.2019 19:00:00 31,9 3,8 8 4 NW 1007,3 20 0,0
17.07.2019 18:00:00 32,4 5,8 8 4 W 1006,9 20 0,0
17.07.2019 17:00:00 32,8 3,7 11 6 WZW 1007,1 20 -
17.07.2019 16:00:00 32,9 5,4 11 6 W 1007,5 20 0,0
17.07.2019 15:00:00 32,4 5,0 11 6 ZW 1008,0 20 0,0
17.07.2019 14:00:00 31,4 7,8 15 8 ZW 1008,6 20 -
17.07.2019 13:00:00 30,2 10,2 9 5 ZW 1009,4 20 0,0
17.07.2019 12:00:00 28,6 11,6 5 3 WZW 1010,0 20 0,0
17.07.2019 11:00:00 25,7 11,5 13 7 ZZW 1011,0 20 -
17.07.2019 10:00:00 24,4 12,7 11 6 ZZO 1011,2 20 0,0
17.07.2019 09:00:00 22,0 13,6 13 7 ZO 1011,6 20 0,0
17.07.2019 08:00:00 21,0 13,9 15 8 ZO 1011,7 20 -
17.07.2019 07:00:00 20,5 13,9 11 6 OZO 1011,6 20 0,0
17.07.2019 06:00:00 21,2 13,6 9 5 O 1011,5 20 0,0
17.07.2019 05:00:00 22,3 14,4 5 3 NO 1010,8 20 -
17.07.2019 04:00:00 22,8 14,6 9 5 ZZO 1010,2 20 0,0
17.07.2019 03:00:00 23,5 15,5 26 14 ZO 1009,7 20 0,0
17.07.2019 02:00:00 23,9 15,9 26 14 ZO 1009,4 20 -
17.07.2019 01:00:00 25,4 14,8 18 10 OZO 1009,2 20 0,0
17.07.2019 00:00:00 28,5 13,2 18 10 ZO 1008,3 20 0,0
16.07.2019 23:00:00 29,6 8,6 11 6 N 1007,2 20 -
16.07.2019 22:00:00 31,3 7,7 9 5 ZO 1006,3 20 0,0
16.07.2019 21:00:00 33,8 8,4 5 3 ZZW 1005,4 20 0,0
16.07.2019 20:00:00 34,6 7,6 11 6 ZW 1005,5 20 -
16.07.2019 19:00:00 34,9 7,8 8 4 ZW 1005,5 20 0,0
16.07.2019 18:00:00 35,6 8,4 5 3 W 1005,8 20 0,0
16.07.2019 17:00:00 35,0 9,4 15 8 WZW 1006,5 20 -
16.07.2019 16:00:00 34,5 9,0 11 6 W 1007,2 20 0,0
16.07.2019 15:00:00 34,4 9,6 9 5 W 1007,6 20 0,0
16.07.2019 14:00:00 33,2 10,5 9 5 W 1008,7 20 -
16.07.2019 13:00:00 31,2 10,5 5 3 NW 1009,6 20 0,0
16.07.2019 12:00:00 29,5 11,5 5 3 N 1010,6 20 0,0
16.07.2019 11:00:00 27,1 10,3 5 3 NNW 1011,5 20 -
16.07.2019 10:00:00 24,5 9,2 4 2 N 1012,6 20 0,0
16.07.2019 09:00:00 21,3 7,9 4 2 NNW 1013,5 20 0,0
16.07.2019 08:00:00 19,0 7,7 4 2 ONO 1013,8 20 -
16.07.2019 07:00:00 18,5 7,6 2 1 N 1013,7 20 0,0
16.07.2019 06:00:00 19,4 6,8 5 3 N 1013,2 20 0,0
16.07.2019 05:00:00 20,9 7,1 5 3 NNO 1012,6 20 -
16.07.2019 04:00:00 21,6 7,0 8 4 NNO 1012,5 20 0,0
16.07.2019 03:00:00 22,9 7,4 9 5 NNO 1012,3 20 0,0
16.07.2019 02:00:00 23,8 7,8 15 8 ONO 1011,8 19 -
16.07.2019 01:00:00 25,2 6,9 16 9 ONO 1011,1 20 0,0
16.07.2019 00:00:00 25,7 3,6 11 6 ONO 1010,7 20 0,0
15.07.2019 23:00:00 27,7 5,3 9 5 ONO 1009,6 20 -
15.07.2019 22:00:00 29,3 5,4 5 3 ONO 1008,4 20 0,0
15.07.2019 21:00:00 31,5 5,1 9 5 N 1007,3 19 0,0
15.07.2019 20:00:00 32,9 4,6 15 8 NNW 1006,5 20 -
15.07.2019 19:00:00 34,1 6,4 13 7 NNW 1005,7 20 0,0
15.07.2019 18:00:00 34,7 7,7 5 3 NNW 1005,7 20 0,0
15.07.2019 17:00:00 35,0 9,4 8 4 NW 1005,9 20 -
15.07.2019 16:00:00 34,0 9,3 8 4 WNW 1006,3 20 0,0
15.07.2019 15:00:00 33,0 9,7 9 5 ZW 1007,4 20 0,0
15.07.2019 14:00:00 31,7 9,3 5 3 WNW 1008,2 20 -
15.07.2019 13:00:00 29,8 9,3 5 3 NW 1009,3 20 0,0
15.07.2019 12:00:00 28,5 7,7 5 3 ONO 1010,0 20 0,0
15.07.2019 11:00:00 25,5 7,6 5 3 N 1010,9 20 -
15.07.2019 10:00:00 23,8 7,4 5 3 NO 1011,6 20 0,0
15.07.2019 09:00:00 21,4 8,0 9 5 NO 1012,4 20 0,0
15.07.2019 08:00:00 18,9 8,2 5 3 NO 1012,9 20 -
15.07.2019 07:00:00 18,6 8,0 11 6 NO 1012,6 19 0,0
15.07.2019 06:00:00 19,0 7,7 8 4 NNO 1012,4 20 0,0
15.07.2019 05:00:00 19,7 9,3 8 4 NO 1012,2 20 -
15.07.2019 04:00:00 20,3 9,8 16 9 O 1011,9 20 0,0
15.07.2019 03:00:00 21,2 9,7 16 9 ONO 1011,6 20 0,0
15.07.2019 02:00:00 22,7 10,2 13 7 NO 1011,1 19 -
15.07.2019 01:00:00 23,3 9,3 13 7 ONO 1011,0 20 0,0
15.07.2019 00:00:00 25,1 8,1 5 3 ONO 1010,7 20 0,0
14.07.2019 23:00:00 26,5 8,0 5 3 NO 1010,0 20 -
14.07.2019 22:00:00 28,5 7,7 5 3 N 1008,6 20 0,0
14.07.2019 21:00:00 30,1 8,5 11 6 NNW 1007,6 20 0,0
14.07.2019 20:00:00 31,7 8,6 11 6 NNW 1006,9 20 -
14.07.2019 19:00:00 32,8 8,3 11 6 NW 1006,4 20 0,0
14.07.2019 18:00:00 32,8 9,6 9 5 NNO 1006,4 20 0,0
14.07.2019 17:00:00 33,1 11,6 5 3 Z 1006,5 20 -
14.07.2019 16:00:00 31,2 12,1 8 4 ONO 1007,2 20 0,0
14.07.2019 15:00:00 29,8 12,2 9 5 NNW 1008,1 20 0,0
14.07.2019 14:00:00 29,4 12,8 11 6 N 1008,6 20 -
14.07.2019 13:00:00 28,2 13,3 11 6 NO 1009,2 20 0,0
14.07.2019 12:00:00 26,6 14,0 9 5 NO 1009,7 20 0,0
14.07.2019 11:00:00 24,9 14,1 13 7 NO 1010,3 20 -
14.07.2019 10:00:00 23,5 14,5 15 8 ONO 1010,3 20 0,0
14.07.2019 09:00:00 21,7 14,6 13 7 ONO 1010,2 20 0,0
14.07.2019 08:00:00 19,5 14,3 8 4 ONO 1010,6 20 -
14.07.2019 07:00:00 19,0 14,3 4 2 OZO 1010,1 19 0,0
14.07.2019 06:00:00 19,9 14,5 5 3 NO 1009,8 20 0,0
14.07.2019 05:00:00 20,1 14,2 5 3 ONO 1009,7 20 -
14.07.2019 04:00:00 21,3 14,5 13 7 NO 1009,8 20 0,0
14.07.2019 03:00:00 21,8 13,4 11 6 ONO 1009,9 20 0,0
14.07.2019 02:00:00 23,3 12,0 9 5 ONO 1009,8 20 -
14.07.2019 01:00:00 24,9 12,1 4 2 N 1009,3 20 0,0
14.07.2019 00:00:00 27,7 9,5 16 9 WZW 1008,2 20 0,0
13.07.2019 23:00:00 28,6 7,2 13 7 WZW 1007,3 20 -
13.07.2019 22:00:00 30,3 7,5 13 7 WZW 1006,3 20 0,0
13.07.2019 21:00:00 32,8 5,4 18 10 WZW 1005,0 20 0,0
13.07.2019 20:00:00 34,0 11,2 16 9 W 1004,5 20 -
13.07.2019 19:00:00 34,8 11,9 18 10 WZW 1004,2 20 0,0
13.07.2019 18:00:00 35,3 12,3 18 10 WZW 1004,7 20 0,0
13.07.2019 17:00:00 35,4 12,4 21 11 WZW 1005,4 20 -
13.07.2019 16:00:00 35,1 13,3 24 13 ZW 1006,2 20 0,0
13.07.2019 15:00:00 37,4 9,1 22 12 Z 1006,0 19 0,0
13.07.2019 14:00:00 37,0 8,8 13 7 Z 1007,0 20 -
13.07.2019 13:00:00 35,5 9,1 8 4 ONO 1008,2 20 0,0
13.07.2019 12:00:00 34,4 10,3 11 6 OZO 1008,7 20 0,0
13.07.2019 11:00:00 31,9 10,0 4 2 Z 1010,1 20 -
13.07.2019 10:00:00 26,8 12,1 5 3 NO 1011,1 20 0,0
13.07.2019 09:00:00 26,5 9,4 5 3 NNO 1011,0 20 0,0
13.07.2019 08:00:00 23,7 8,9 8 4 WNW 1012,8 20 -
13.07.2019 07:00:00 22,3 6,5 5 3 ONO 1012,1 20 0,0
13.07.2019 06:00:00 23,6 6,4 4 2 NNW 1011,9 20 0,0
13.07.2019 05:00:00 24,1 6,4 4 2 N 1011,9 20 -
13.07.2019 04:00:00 24,3 5,1 8 4 O 1011,9 20 0,0
13.07.2019 03:00:00 25,0 5,2 4 2 OZO 1012,1 20 0,0
13.07.2019 02:00:00 26,3 5,3 4 2 Z 1011,8 20 -
13.07.2019 01:00:00 28,0 5,5 4 2 ZO 1011,4 20 0,0
13.07.2019 00:00:00 29,2 5,9 2 1 NNO 1011,0 20 0,0
12.07.2019 23:00:00 30,4 4,9 8 4 ZZO 1010,6 20 -
12.07.2019 22:00:00 33,0 6,3 4 2 Z 1009,5 19 0,0
12.07.2019 21:00:00 35,8 5,1 8 4 WZW 1009,0 20 0,0
12.07.2019 20:00:00 37,0 5,1 4 2 NW 1008,2 20 -

tt = temperatuur
td = dauwpunt
ff = windsnelheid
dd = windrichting
ppp = luchtdruk
vv = zicht
rr = neerslag

Weerstations in de omgeving